YZR7920 ZWWW-ZSNJ

Flight info

Callsign YZR7920
Flight time 3h 51m
Altitude 33100
Route VARMI W190 ADPET W188 LIKMI W270 DKO W64 NUTLO B208 CGO W129 KAMDA W128 FYG B208 HFE
Aircraft B77L/H-SDE2E3FGILRWXY/LB2

Departure

Time 2026-05-09 01:16
Airport Ürümqi Tianshan International Airport (ZWWW)

Arrival

Time 2026-05-09 05:08
Airport Nanjing Lukou International Airport (ZSNJ)
Time Latitude Longitude Altitude Speed Heading
2026-05-09 00:18 43.91380 87.49255 2148 ft 0 kts 162°
2026-05-09 00:57 43.91392 87.49250 2148 ft 2 kts 162°
2026-05-09 00:58 43.91406 87.49244 2148 ft 2 kts 162°
2026-05-09 00:58 43.91421 87.49238 2148 ft 2 kts 167°
2026-05-09 00:58 43.91436 87.49237 2148 ft 2 kts 195°
2026-05-09 00:58 43.91449 87.49246 2148 ft 2 kts 217°
2026-05-09 00:59 43.91459 87.49260 2148 ft 2 kts 239°
2026-05-09 00:59 43.91463 87.49271 2148 ft 0 kts 253°
2026-05-09 00:59 43.91465 87.49277 2148 ft 0 kts 253°
2026-05-09 01:02 43.91464 87.49275 2148 ft 0 kts 253°
2026-05-09 01:02 43.91461 87.49262 2148 ft 2 kts 253°
2026-05-09 01:03 43.91455 87.49233 2148 ft 3 kts 252°
2026-05-09 01:03 43.91446 87.49192 2148 ft 5 kts 252°
2026-05-09 01:03 43.91435 87.49139 2148 ft 6 kts 261°
2026-05-09 01:03 43.91454 87.49084 2148 ft 7 kts 328°
2026-05-09 01:04 43.91506 87.49058 2148 ft 8 kts 342°
2026-05-09 01:04 43.91566 87.49033 2147 ft 9 kts 342°
2026-05-09 01:04 43.91635 87.49004 2147 ft 10 kts 343°
2026-05-09 01:04 43.91708 87.48974 2147 ft 11 kts 343°
2026-05-09 01:05 43.91788 87.48943 2147 ft 12 kts 343°
2026-05-09 01:05 43.91872 87.48907 2147 ft 12 kts 343°
2026-05-09 01:05 43.92053 87.48834 2146 ft 14 kts 343°
2026-05-09 01:06 43.92149 87.48794 2146 ft 14 kts 343°
2026-05-09 01:06 43.92247 87.48752 2146 ft 15 kts 342°
2026-05-09 01:06 43.92348 87.48710 2146 ft 15 kts 343°
2026-05-09 01:06 43.92437 87.48673 2145 ft 8 kts 343°
2026-05-09 01:07 43.92490 87.48642 2145 ft 8 kts 312°
2026-05-09 01:07 43.92493 87.48557 2145 ft 9 kts 253°
2026-05-09 01:07 43.92473 87.48464 2145 ft 10 kts 253°
2026-05-09 01:07 43.92452 87.48367 2145 ft 11 kts 253°
2026-05-09 01:08 43.92438 87.48297 2145 ft 11 kts 253°
2026-05-09 01:08 43.92406 87.48151 2146 ft 12 kts 253°
2026-05-09 01:08 43.92382 87.48037 2146 ft 12 kts 253°
2026-05-09 01:08 43.92358 87.47920 2146 ft 12 kts 253°
2026-05-09 01:09 43.92332 87.47799 2146 ft 13 kts 253°
2026-05-09 01:09 43.92306 87.47675 2146 ft 13 kts 253°
2026-05-09 01:09 43.92279 87.47548 2146 ft 13 kts 253°
2026-05-09 01:09 43.92252 87.47420 2146 ft 14 kts 253°
2026-05-09 01:10 43.92224 87.47289 2146 ft 14 kts 253°
2026-05-09 01:10 43.92195 87.47157 2146 ft 14 kts 253°
2026-05-09 01:10 43.92167 87.47023 2146 ft 14 kts 253°
2026-05-09 01:10 43.92148 87.46935 2146 ft 14 kts 253°
2026-05-09 01:11 43.92109 87.46754 2146 ft 14 kts 253°
2026-05-09 01:11 43.92079 87.46614 2146 ft 15 kts 253°
2026-05-09 01:11 43.92050 87.46475 2146 ft 15 kts 253°
2026-05-09 01:11 43.92020 87.46334 2146 ft 15 kts 253°
2026-05-09 01:12 43.91990 87.46193 2146 ft 15 kts 253°
2026-05-09 01:12 43.91960 87.46051 2147 ft 15 kts 253°
2026-05-09 01:12 43.91929 87.45908 2147 ft 15 kts 253°
2026-05-09 01:12 43.91899 87.45764 2147 ft 15 kts 253°
2026-05-09 01:13 43.91878 87.45668 2147 ft 15 kts 253°
2026-05-09 01:13 43.91837 87.45476 2147 ft 15 kts 253°
2026-05-09 01:13 43.91806 87.45331 2147 ft 15 kts 253°
2026-05-09 01:13 43.91786 87.45235 2147 ft 8 kts 253°
2026-05-09 01:14 43.91800 87.45167 2147 ft 8 kts 326°
2026-05-09 01:14 43.91861 87.45137 2147 ft 9 kts 342°
2026-05-09 01:14 43.91897 87.45122 2147 ft 7 kts 343°
2026-05-09 01:14 43.91952 87.45173 2147 ft 8 kts 71°
2026-05-09 01:15 43.91957 87.45199 2147 ft 0 kts 73°
2026-05-09 01:15 43.91972 87.45268 2147 ft 26 kts 73°
2026-05-09 01:15 43.92037 87.45574 2146 ft 71 kts 73°
2026-05-09 01:15 43.92330 87.46945 2146 ft 151 kts 73°
2026-05-09 01:16 43.92558 87.48002 2146 ft 187 kts 74°
2026-05-09 01:16 43.93131 87.50557 2352 ft 229 kts 69°
2026-05-09 01:16 43.93739 87.52602 3247 ft 230 kts 72°
2026-05-09 01:17 43.94561 87.56035 4374 ft 237 kts 72°
2026-05-09 01:17 43.95287 87.59054 5103 ft 252 kts 67°
2026-05-09 01:17 43.96243 87.61053 5731 ft 256 kts 39°
2026-05-09 01:17 43.97767 87.62265 6401 ft 255 kts 12°
2026-05-09 01:18 43.99518 87.62395 7089 ft 254 kts 347°
2026-05-09 01:18 44.01194 87.61826 7829 ft 253 kts 343°
2026-05-09 01:18 44.02890 87.61177 8549 ft 254 kts 343°
2026-05-09 01:18 44.04587 87.60524 9256 ft 255 kts 343°
2026-05-09 01:19 44.05727 87.60085 9711 ft 256 kts 343°
2026-05-09 01:19 44.08008 87.59206 10606 ft 258 kts 342°
2026-05-09 01:19 44.09729 87.58543 11279 ft 258 kts 342°
2026-05-09 01:19 44.11489 87.58097 11921 ft 261 kts 359°
2026-05-09 01:20 44.13289 87.58555 12383 ft 275 kts 13°
2026-05-09 01:20 44.14538 87.59134 12598 ft 286 kts 15°
2026-05-09 01:20 44.17131 87.60427 13024 ft 308 kts 15°
2026-05-09 01:20 44.19181 87.61445 13378 ft 323 kts 15°
2026-05-09 01:21 44.21357 87.62517 13765 ft 338 kts 15°
2026-05-09 01:21 44.22840 87.63248 14030 ft 348 kts 15°
2026-05-09 01:21 44.25988 87.64799 14602 ft 366 kts 15°
2026-05-09 01:21 44.28431 87.66003 15043 ft 380 kts 16°
2026-05-09 01:22 44.30966 87.67270 15422 ft 395 kts 19°
2026-05-09 01:22 44.33426 87.68995 15993 ft 407 kts 28°
2026-05-09 01:22 44.35717 87.71394 16735 ft 415 kts 37°
2026-05-09 01:22 44.37848 87.74061 17436 ft 419 kts 39°
2026-05-09 01:23 44.40020 87.76820 18136 ft 424 kts 39°
2026-05-09 01:23 44.42191 87.79580 18821 ft 428 kts 39°
2026-05-09 01:23 44.43683 87.81479 19257 ft 432 kts 39°
2026-05-09 01:23 44.45893 87.84293 19908 ft 437 kts 39°
2026-05-09 01:24 44.48917 87.88145 20740 ft 443 kts 39°
2026-05-09 01:24 44.50416 87.90072 21174 ft 446 kts 40°
2026-05-09 01:24 44.52493 87.93324 21779 ft 455 kts 50°
2026-05-09 01:24 44.54687 87.98455 22545 ft 467 kts 63°
2026-05-09 01:25 44.55804 88.02753 23114 ft 475 kts 72°
2026-05-09 01:25 44.56421 88.07286 23680 ft 483 kts 82°
2026-05-09 01:25 44.56501 88.12038 24271 ft 489 kts 92°
2026-05-09 01:25 44.56112 88.16711 24859 ft 493 kts 96°
2026-05-09 01:26 44.55615 88.21492 25416 ft 497 kts 96°
2026-05-09 01:26 44.55135 88.26299 25948 ft 501 kts 96°
2026-05-09 01:26 44.54669 88.31132 26492 ft 504 kts 96°
2026-05-09 01:26 44.54207 88.35988 27033 ft 508 kts 95°
2026-05-09 01:27 44.53748 88.40859 27594 ft 511 kts 95°
2026-05-09 01:27 44.53286 88.45804 28092 ft 515 kts 95°
2026-05-09 01:27 44.52822 88.50771 28645 ft 518 kts 95°
2026-05-09 01:27 44.52371 88.55756 29182 ft 521 kts 95°
2026-05-09 01:28 44.52072 88.59129 29565 ft 522 kts 95°
2026-05-09 01:28 44.51482 88.65806 30553 ft 519 kts 95°
2026-05-09 01:28 44.51041 88.70766 31316 ft 516 kts 95°
2026-05-09 01:28 44.50599 88.75774 31965 ft 515 kts 95°
2026-05-09 01:29 44.50158 88.80688 32538 ft 514 kts 95°
2026-05-09 01:29 44.49714 88.85611 33057 ft 514 kts 95°
2026-05-09 01:29 44.49263 88.90589 33177 ft 517 kts 95°
2026-05-09 01:29 44.48809 88.95583 33188 ft 514 kts 95°
2026-05-09 01:30 44.47901 89.05500 33187 ft 513 kts 95°
2026-05-09 01:30 44.46970 89.15458 33190 ft 512 kts 95°
2026-05-09 01:31 44.46025 89.25401 33195 ft 512 kts 95°
2026-05-09 01:31 44.45080 89.35266 33194 ft 512 kts 95°
2026-05-09 01:32 44.44121 89.45187 33200 ft 512 kts 95°
2026-05-09 01:32 44.43160 89.55041 33202 ft 512 kts 95°
2026-05-09 01:33 44.42193 89.64866 33206 ft 511 kts 95°
2026-05-09 01:33 44.40643 89.74480 33206 ft 514 kts 105°
2026-05-09 01:34 44.38926 89.82440 33206 ft 513 kts 105°
2026-05-09 01:34 44.36502 89.93597 33207 ft 514 kts 105°
2026-05-09 01:35 44.34416 90.03149 33212 ft 514 kts 105°
2026-05-09 01:35 44.32336 90.12640 33217 ft 513 kts 105°
2026-05-09 01:36 44.30582 90.20610 33222 ft 515 kts 105°
2026-05-09 01:36 44.28130 90.31699 33227 ft 515 kts 105°
2026-05-09 01:37 44.26020 90.41198 33235 ft 514 kts 104°
2026-05-09 01:37 44.24261 90.49087 33241 ft 517 kts 104°
2026-05-09 01:38 44.21760 90.60250 33249 ft 517 kts 104°
2026-05-09 01:38 44.19613 90.69790 33248 ft 516 kts 105°
2026-05-09 01:39 44.17816 90.77737 33251 ft 518 kts 105°
2026-05-09 01:39 44.15302 90.88815 33261 ft 517 kts 105°
2026-05-09 01:40 44.13126 90.98357 33263 ft 518 kts 104°
2026-05-09 01:40 44.10933 91.07928 33269 ft 516 kts 104°
2026-05-09 01:41 44.08754 91.17411 33281 ft 517 kts 104°
2026-05-09 01:41 44.06553 91.26947 33300 ft 518 kts 104°
2026-05-09 01:42 44.04348 91.36453 33320 ft 516 kts 104°
2026-05-09 01:42 44.02142 91.45910 33332 ft 515 kts 104°
2026-05-09 01:43 43.99921 91.55306 33348 ft 515 kts 104°
2026-05-09 01:43 43.97678 91.64759 33358 ft 515 kts 104°
2026-05-09 01:44 43.95435 91.74178 33371 ft 515 kts 104°
2026-05-09 01:44 43.93189 91.83570 33380 ft 515 kts 104°
2026-05-09 01:45 43.90926 91.92989 33364 ft 513 kts 104°
2026-05-09 01:45 43.88671 92.02342 33372 ft 515 kts 104°
2026-05-09 01:46 43.86408 92.11684 33371 ft 514 kts 104°
2026-05-09 01:46 43.84499 92.19539 33367 ft 513 kts 104°
2026-05-09 01:47 43.81840 92.30435 33366 ft 513 kts 104°
2026-05-09 01:47 43.79552 92.39766 33362 ft 514 kts 104°
2026-05-09 01:48 43.77629 92.47581 33350 ft 516 kts 104°
2026-05-09 01:48 43.74925 92.58524 33352 ft 516 kts 104°
2026-05-09 01:49 43.72609 92.67854 33344 ft 513 kts 104°
2026-05-09 01:49 43.70272 92.77236 33332 ft 518 kts 104°
2026-05-09 01:50 43.68326 92.85014 33344 ft 514 kts 104°
2026-05-09 01:50 43.65595 92.95893 33355 ft 516 kts 104°
2026-05-09 01:51 43.63297 93.05265 33368 ft 517 kts 103°
2026-05-09 01:51 43.61052 93.14701 33378 ft 516 kts 103°
2026-05-09 01:52 43.59191 93.22480 33378 ft 516 kts 104°
2026-05-09 01:52 43.56552 93.33450 33378 ft 518 kts 104°
2026-05-09 01:53 43.54668 93.41238 33373 ft 516 kts 104°
2026-05-09 01:53 43.52401 93.50578 33349 ft 517 kts 104°
2026-05-09 01:54 43.49743 93.61475 33339 ft 517 kts 104°
2026-05-09 01:54 43.47445 93.70852 33344 ft 517 kts 105°
2026-05-09 01:55 43.45142 93.80214 33348 ft 517 kts 105°
2026-05-09 01:55 43.43222 93.87986 33369 ft 519 kts 105°
2026-05-09 01:56 43.40519 93.98884 33378 ft 517 kts 105°
2026-05-09 01:56 43.38588 94.06641 33405 ft 519 kts 105°
2026-05-09 01:57 43.35850 94.17589 33393 ft 518 kts 105°
2026-05-09 01:57 43.33523 94.26856 33394 ft 517 kts 105°
2026-05-09 01:58 43.31173 94.36176 33402 ft 519 kts 105°
2026-05-09 01:58 43.28806 94.45529 33394 ft 517 kts 106°
2026-05-09 01:59 43.26440 94.54840 33373 ft 517 kts 106°
2026-05-09 01:59 43.24072 94.64120 33378 ft 516 kts 106°
2026-05-09 02:00 43.22090 94.71860 33368 ft 517 kts 107°
2026-05-09 02:00 43.19302 94.82704 33371 ft 515 kts 107°
2026-05-09 02:01 43.16929 94.91899 33358 ft 516 kts 107°
2026-05-09 02:01 43.14400 95.01080 33358 ft 518 kts 114°
2026-05-09 02:02 43.11188 95.07966 33348 ft 520 kts 129°
2026-05-09 02:02 43.07778 95.12614 33351 ft 521 kts 141°
2026-05-09 02:02 43.04849 95.15593 33376 ft 521 kts 144°
2026-05-09 02:03 42.98919 95.21246 33369 ft 520 kts 145°
2026-05-09 02:03 42.92940 95.26868 33352 ft 520 kts 146°
2026-05-09 02:04 42.87032 95.32381 33332 ft 521 kts 146°
2026-05-09 02:04 42.81014 95.37968 33333 ft 519 kts 146°
2026-05-09 02:05 42.75063 95.43470 33317 ft 520 kts 146°
2026-05-09 02:05 42.69094 95.48970 33316 ft 518 kts 146°
2026-05-09 02:06 42.63116 95.54464 33314 ft 519 kts 147°
2026-05-09 02:07 42.55122 95.61789 33318 ft 518 kts 147°
2026-05-09 02:07 42.48190 95.68178 33305 ft 519 kts 143°
2026-05-09 02:08 42.43121 95.75103 33322 ft 519 kts 126°
2026-05-09 02:08 42.39737 95.83688 33361 ft 519 kts 108°
2026-05-09 02:09 42.38315 95.93082 33349 ft 515 kts 91°
2026-05-09 02:09 42.38060 96.02772 33377 ft 514 kts 90°
2026-05-09 02:10 42.37823 96.12398 33383 ft 515 kts 90°
2026-05-09 02:10 42.37560 96.22079 33364 ft 515 kts 90°
2026-05-09 02:11 42.37281 96.31739 33373 ft 517 kts 90°
2026-05-09 02:11 42.36987 96.41466 33377 ft 517 kts 90°
2026-05-09 02:12 42.36735 96.49558 33378 ft 517 kts 90°
2026-05-09 02:12 42.36369 96.60923 33369 ft 518 kts 90°
2026-05-09 02:13 42.36047 96.70616 33351 ft 518 kts 91°
2026-05-09 02:13 42.35714 96.80357 33375 ft 520 kts 91°
2026-05-09 02:14 42.35432 96.88433 33360 ft 518 kts 91°
2026-05-09 02:14 42.35026 96.99801 33360 ft 520 kts 91°
2026-05-09 02:15 42.34669 97.09516 33342 ft 519 kts 91°
2026-05-09 02:15 42.34362 97.17710 33341 ft 520 kts 91°
2026-05-09 02:16 42.33925 97.29108 33344 ft 520 kts 91°
2026-05-09 02:16 42.33604 97.37282 33333 ft 520 kts 91°
2026-05-09 02:17 42.33147 97.48698 33334 ft 519 kts 91°
2026-05-09 02:17 42.32750 97.58401 33329 ft 519 kts 91°
2026-05-09 02:18 42.32339 97.68216 33319 ft 519 kts 92°
2026-05-09 02:18 42.31925 97.77909 33309 ft 518 kts 92°
2026-05-09 02:19 42.31573 97.86008 33302 ft 519 kts 92°
2026-05-09 02:19 42.31072 97.97321 33303 ft 519 kts 92°
2026-05-09 02:20 42.30633 98.07013 33297 ft 519 kts 92°
2026-05-09 02:20 42.30258 98.15171 33291 ft 519 kts 92°
2026-05-09 02:21 42.29803 98.24893 33294 ft 519 kts 92°
2026-05-09 02:21 42.29250 98.36311 33280 ft 519 kts 92°
2026-05-09 02:22 42.28748 98.46111 33268 ft 520 kts 92°
2026-05-09 02:22 42.28241 98.55826 33260 ft 519 kts 92°
2026-05-09 02:23 42.27809 98.64010 33253 ft 520 kts 92°
2026-05-09 02:23 42.27200 98.75359 33239 ft 521 kts 92°
2026-05-09 02:24 42.26667 98.85131 33226 ft 522 kts 92°
2026-05-09 02:24 42.26128 98.94841 33233 ft 520 kts 92°
2026-05-09 02:25 42.25674 99.02931 33236 ft 521 kts 92°
2026-05-09 02:25 42.25025 99.14303 33213 ft 520 kts 92°
2026-05-09 02:26 42.24460 99.24053 33191 ft 520 kts 92°
2026-05-09 02:26 42.23985 99.32145 33193 ft 519 kts 92°
2026-05-09 02:27 42.23409 99.41810 33200 ft 520 kts 92°
2026-05-09 02:27 42.22822 99.51530 33208 ft 519 kts 92°
2026-05-09 02:28 42.22132 99.62791 33196 ft 519 kts 92°
2026-05-09 02:28 42.21531 99.72445 33174 ft 518 kts 92°
2026-05-09 02:29 42.21021 99.80542 33163 ft 520 kts 92°
2026-05-09 02:29 42.20300 99.91830 33155 ft 517 kts 92°
2026-05-09 02:30 42.19676 100.01465 33151 ft 518 kts 92°
2026-05-09 02:30 42.19041 100.11139 33156 ft 519 kts 92°
2026-05-09 02:31 42.18503 100.19235 33151 ft 517 kts 92°
2026-05-09 02:31 42.17745 100.30498 33151 ft 518 kts 92°
2026-05-09 02:32 42.17191 100.38625 33150 ft 519 kts 92°
2026-05-09 02:32 42.16525 100.48292 33150 ft 518 kts 92°
2026-05-09 02:33 42.15736 100.59594 33147 ft 519 kts 92°
2026-05-09 02:33 42.15160 100.67728 33152 ft 518 kts 93°
2026-05-09 02:34 42.14354 100.78997 33149 ft 519 kts 93°
2026-05-09 02:34 42.13653 100.88663 33139 ft 518 kts 93°
2026-05-09 02:35 42.12948 100.98277 33141 ft 518 kts 93°
2026-05-09 02:35 42.11869 101.06219 33142 ft 522 kts 105°
2026-05-09 02:36 42.09541 101.15500 33149 ft 523 kts 107°
2026-05-09 02:36 42.06744 101.26262 33141 ft 524 kts 107°
2026-05-09 02:37 42.04308 101.35555 33144 ft 525 kts 107°
2026-05-09 02:37 42.02281 101.43248 33143 ft 524 kts 107°
2026-05-09 02:38 41.99836 101.52487 33147 ft 525 kts 107°
2026-05-09 02:38 41.97374 101.61747 33146 ft 525 kts 107°
2026-05-09 02:39 41.94482 101.72578 33142 ft 527 kts 108°
2026-05-09 02:39 41.92008 101.81805 33149 ft 526 kts 108°
2026-05-09 02:40 41.89934 101.89513 33146 ft 527 kts 108°
2026-05-09 02:40 41.87021 102.00296 33142 ft 527 kts 108°
2026-05-09 02:41 41.84942 102.07964 33147 ft 527 kts 108°
2026-05-09 02:41 41.82026 102.18675 33153 ft 525 kts 108°
2026-05-09 02:42 41.79940 102.26313 33152 ft 525 kts 108°
2026-05-09 02:42 41.77004 102.37019 33161 ft 525 kts 108°
2026-05-09 02:43 41.74904 102.44649 33172 ft 524 kts 108°
2026-05-09 02:43 41.72390 102.53754 33172 ft 524 kts 108°
2026-05-09 02:44 41.69843 102.62946 33182 ft 522 kts 108°
2026-05-09 02:44 41.66899 102.73527 33178 ft 523 kts 108°
2026-05-09 02:45 41.64781 102.81117 33188 ft 522 kts 108°
2026-05-09 02:45 41.61806 102.91740 33181 ft 522 kts 108°
2026-05-09 02:46 41.59698 102.99239 33188 ft 522 kts 108°
2026-05-09 02:46 41.57141 103.08302 33190 ft 522 kts 108°
2026-05-09 02:47 41.54565 103.17397 33186 ft 523 kts 108°
2026-05-09 02:47 41.51988 103.26461 33192 ft 522 kts 108°
2026-05-09 02:48 41.49383 103.35594 33185 ft 522 kts 108°
2026-05-09 02:48 41.46792 103.44644 33179 ft 522 kts 108°
2026-05-09 02:49 41.43754 103.55217 33180 ft 522 kts 108°
2026-05-09 02:49 41.41151 103.64241 33189 ft 523 kts 108°
2026-05-09 02:50 41.38975 103.71761 33179 ft 522 kts 109°
2026-05-09 02:50 41.35935 103.82227 33189 ft 521 kts 109°
2026-05-09 02:51 41.33321 103.91194 33194 ft 522 kts 109°
2026-05-09 02:51 41.31128 103.98695 33185 ft 522 kts 109°
2026-05-09 02:52 41.28483 104.07711 33179 ft 522 kts 109°
2026-05-09 02:52 41.25832 104.16716 33184 ft 522 kts 109°
2026-05-09 02:53 41.23161 104.25761 33184 ft 522 kts 109°
2026-05-09 02:53 41.20041 104.36281 33189 ft 522 kts 109°
2026-05-09 02:54 41.17810 104.43780 33196 ft 524 kts 109°
2026-05-09 02:54 41.14674 104.54282 33209 ft 524 kts 109°
2026-05-09 02:55 41.12425 104.61790 33214 ft 523 kts 109°
2026-05-09 02:55 41.09256 104.72280 33211 ft 525 kts 111°
2026-05-09 02:56 41.06281 104.81103 33224 ft 525 kts 112°
2026-05-09 02:56 41.03785 104.88438 33227 ft 526 kts 112°
2026-05-09 02:57 41.00785 104.97257 33234 ft 527 kts 112°
2026-05-09 02:57 40.97749 105.06170 33246 ft 527 kts 112°
2026-05-09 02:58 40.94235 105.16467 33238 ft 526 kts 112°
2026-05-09 02:58 40.91716 105.23831 33235 ft 527 kts 112°
2026-05-09 02:59 40.88678 105.32687 33221 ft 526 kts 112°
2026-05-09 02:59 40.85651 105.41484 33216 ft 526 kts 112°
2026-05-09 03:00 40.82124 105.51703 33218 ft 527 kts 112°
2026-05-09 03:00 40.79582 105.59048 33216 ft 528 kts 112°
2026-05-09 03:01 40.76527 105.67846 33214 ft 527 kts 113°
2026-05-09 03:01 40.72976 105.78040 33220 ft 528 kts 113°
2026-05-09 03:02 40.70434 105.85316 33219 ft 528 kts 113°
2026-05-09 03:02 40.67363 105.94081 33216 ft 529 kts 113°
2026-05-09 03:03 40.63758 106.04336 33212 ft 529 kts 113°
2026-05-09 03:03 40.61146 106.11743 33223 ft 530 kts 113°
2026-05-09 03:04 40.58021 106.20579 33216 ft 530 kts 113°
2026-05-09 03:04 40.54890 106.29407 33216 ft 530 kts 113°
2026-05-09 03:05 40.51755 106.38217 33192 ft 530 kts 113°
2026-05-09 03:05 40.48589 106.47088 33185 ft 533 kts 113°
2026-05-09 03:06 40.45427 106.55917 33177 ft 531 kts 114°
2026-05-09 03:06 40.42276 106.64693 33177 ft 531 kts 114°
2026-05-09 03:07 40.38577 106.74958 33177 ft 533 kts 114°
2026-05-09 03:07 40.35426 106.83675 33171 ft 533 kts 114°
2026-05-09 03:08 40.32847 106.91022 33169 ft 533 kts 109°
2026-05-09 03:08 40.31519 106.97258 33170 ft 530 kts 97°
2026-05-09 03:08 40.31134 107.02031 33164 ft 527 kts 88°
2026-05-09 03:09 40.31413 107.09940 33175 ft 523 kts 82°
2026-05-09 03:09 40.31953 107.19398 33184 ft 523 kts 82°
2026-05-09 03:10 40.32549 107.30514 33192 ft 525 kts 82°
2026-05-09 03:10 40.33036 107.40060 33175 ft 523 kts 82°
2026-05-09 03:11 40.33431 107.48021 33183 ft 525 kts 82°
2026-05-09 03:11 40.33896 107.57636 33172 ft 527 kts 82°
2026-05-09 03:12 40.34425 107.68844 33158 ft 528 kts 83°
2026-05-09 03:12 40.34795 107.76843 33174 ft 528 kts 83°
2026-05-09 03:13 40.35445 107.91213 33171 ft 528 kts 83°
2026-05-09 03:13 40.35936 108.02396 33170 ft 531 kts 83°
2026-05-09 03:14 40.36261 108.10427 33169 ft 529 kts 83°
2026-05-09 03:14 40.36706 108.21722 33167 ft 530 kts 83°
2026-05-09 03:15 40.37020 108.29822 33152 ft 529 kts 83°
2026-05-09 03:15 40.37390 108.39561 33155 ft 530 kts 83°
2026-05-09 03:16 40.37810 108.50900 33158 ft 531 kts 83°
2026-05-09 03:16 40.38103 108.58966 33161 ft 531 kts 83°
2026-05-09 03:17 40.38447 108.68669 33153 ft 532 kts 84°
2026-05-09 03:17 40.38837 108.79935 33143 ft 533 kts 84°
2026-05-09 03:18 40.39163 108.89603 33146 ft 533 kts 84°
2026-05-09 03:18 40.39429 108.97701 33141 ft 535 kts 84°
2026-05-09 03:19 40.39793 109.09034 33140 ft 534 kts 84°
2026-05-09 03:19 40.40048 109.17175 33139 ft 535 kts 84°
2026-05-09 03:20 40.40393 109.28545 33133 ft 536 kts 84°
2026-05-09 03:20 40.40680 109.38259 33133 ft 535 kts 84°
2026-05-09 03:21 40.40913 109.46394 33128 ft 536 kts 84°
2026-05-09 03:21 40.41232 109.57820 33128 ft 536 kts 84°
2026-05-09 03:22 40.41452 109.65953 33125 ft 537 kts 85°
2026-05-09 03:22 40.41709 109.75740 33113 ft 537 kts 85°
2026-05-09 03:23 40.41998 109.87141 33110 ft 537 kts 85°
2026-05-09 03:23 40.42238 109.96952 33105 ft 539 kts 85°
2026-05-09 03:24 40.42266 110.06821 33104 ft 540 kts 88°
2026-05-09 03:24 40.42207 110.14956 33112 ft 539 kts 88°
2026-05-09 03:25 40.42137 110.24799 33110 ft 539 kts 88°
2026-05-09 03:25 40.42051 110.36288 33112 ft 540 kts 87°
2026-05-09 03:26 40.41972 110.46159 33114 ft 539 kts 87°
2026-05-09 03:26 40.41901 110.54337 33109 ft 540 kts 88°
2026-05-09 03:27 40.41810 110.64186 33112 ft 540 kts 88°
2026-05-09 03:27 40.41694 110.75668 33101 ft 540 kts 88°
2026-05-09 03:28 40.41604 110.83917 33101 ft 541 kts 88°
2026-05-09 03:28 40.41489 110.93741 33106 ft 541 kts 88°
2026-05-09 03:29 40.41365 111.03606 33102 ft 540 kts 88°
2026-05-09 03:29 40.41233 111.13471 33106 ft 541 kts 88°
2026-05-09 03:30 40.41069 111.24956 33106 ft 540 kts 88°
2026-05-09 03:30 40.40919 111.34811 33109 ft 541 kts 88°
2026-05-09 03:31 40.40785 111.43068 33106 ft 540 kts 88°
2026-05-09 03:31 40.40618 111.52911 33112 ft 540 kts 88°
2026-05-09 03:32 40.40443 111.62727 33115 ft 541 kts 88°
2026-05-09 03:32 40.40228 111.74212 33103 ft 541 kts 89°
2026-05-09 03:33 40.40036 111.84006 33111 ft 540 kts 89°
2026-05-09 03:33 40.39840 111.92231 33105 ft 542 kts 92°
2026-05-09 03:34 40.38258 112.01876 33111 ft 544 kts 110°
2026-05-09 03:34 40.36072 112.07832 33117 ft 542 kts 122°
2026-05-09 03:34 40.34684 112.10545 33117 ft 541 kts 129°
2026-05-09 03:35 40.29454 112.17499 33123 ft 533 kts 146°
2026-05-09 03:35 40.23092 112.22208 33126 ft 523 kts 163°
2026-05-09 03:36 40.14929 112.24508 33124 ft 505 kts 184°
2026-05-09 03:36 40.09203 112.23888 33124 ft 493 kts 199°
2026-05-09 03:37 40.04915 112.22100 33138 ft 480 kts 211°
2026-05-09 03:37 40.01996 112.20069 33142 ft 473 kts 219°
2026-05-09 03:37 39.97232 112.16454 33140 ft 479 kts 210°
2026-05-09 03:38 39.90666 112.14215 33150 ft 497 kts 192°
2026-05-09 03:38 39.83711 112.13989 33148 ft 505 kts 184°
2026-05-09 03:39 39.75486 112.14848 33173 ft 510 kts 179°
2026-05-09 03:39 39.69587 112.15832 33186 ft 514 kts 177°
2026-05-09 03:40 39.61382 112.17475 33176 ft 514 kts 176°
2026-05-09 03:40 39.55513 112.18761 33181 ft 514 kts 175°
2026-05-09 03:41 39.48474 112.20369 33180 ft 513 kts 175°
2026-05-09 03:41 39.41466 112.22042 33183 ft 514 kts 175°
2026-05-09 03:42 39.34439 112.23745 33188 ft 514 kts 175°
2026-05-09 03:42 39.27391 112.25461 33193 ft 516 kts 174°
2026-05-09 03:43 39.19197 112.27459 33195 ft 513 kts 174°
2026-05-09 03:43 39.13349 112.28884 33198 ft 516 kts 174°
2026-05-09 03:44 39.06282 112.30605 33224 ft 516 kts 174°
2026-05-09 03:44 38.99224 112.32322 33213 ft 514 kts 174°
2026-05-09 03:45 38.91018 112.34314 33225 ft 514 kts 174°
2026-05-09 03:45 38.85182 112.35728 33222 ft 515 kts 174°
2026-05-09 03:46 38.78126 112.37434 33224 ft 515 kts 174°
2026-05-09 03:46 38.71086 112.39134 33231 ft 515 kts 174°
2026-05-09 03:47 38.64040 112.40832 33223 ft 514 kts 174°
2026-05-09 03:47 38.56976 112.42529 33216 ft 515 kts 174°
2026-05-09 03:48 38.48733 112.44508 33203 ft 516 kts 174°
2026-05-09 03:48 38.41685 112.46188 33203 ft 517 kts 174°
2026-05-09 03:49 38.35816 112.47575 33197 ft 516 kts 174°
2026-05-09 03:49 38.27600 112.49513 33194 ft 516 kts 174°
2026-05-09 03:50 38.20523 112.51178 33194 ft 515 kts 174°
2026-05-09 03:50 38.13423 112.52846 33186 ft 517 kts 174°
2026-05-09 03:51 38.07573 112.54218 33175 ft 515 kts 174°
2026-05-09 03:51 38.00496 112.55875 33175 ft 516 kts 174°
2026-05-09 03:52 37.93457 112.57520 33175 ft 516 kts 174°
2026-05-09 03:52 37.86417 112.59164 33161 ft 516 kts 174°
2026-05-09 03:53 37.78159 112.61128 33148 ft 516 kts 174°
2026-05-09 03:53 37.72292 112.62612 33144 ft 517 kts 170°
2026-05-09 03:54 37.65342 112.64985 33153 ft 520 kts 169°
2026-05-09 03:54 37.58360 112.67372 33150 ft 520 kts 170°
2026-05-09 03:55 37.51386 112.69734 33165 ft 519 kts 170°
2026-05-09 03:55 37.44465 112.72061 33168 ft 517 kts 170°
2026-05-09 03:56 37.37490 112.74393 33186 ft 520 kts 170°
2026-05-09 03:56 37.30484 112.76726 33207 ft 519 kts 170°
2026-05-09 03:57 37.22325 112.79436 33224 ft 517 kts 170°
2026-05-09 03:57 37.16511 112.81362 33221 ft 518 kts 170°
2026-05-09 03:58 37.09580 112.83653 33214 ft 518 kts 170°
2026-05-09 03:58 37.02581 112.85964 33206 ft 517 kts 170°
2026-05-09 03:59 36.95638 112.88257 33218 ft 519 kts 170°
2026-05-09 03:59 36.87475 112.90949 33195 ft 517 kts 170°
2026-05-09 04:00 36.80516 112.93236 33185 ft 522 kts 170°
2026-05-09 04:00 36.73531 112.95530 33196 ft 520 kts 170°
2026-05-09 04:01 36.66515 112.97828 33171 ft 523 kts 171°
2026-05-09 04:01 36.60636 112.99751 33185 ft 523 kts 171°
2026-05-09 04:02 36.53663 113.02029 33184 ft 520 kts 171°
2026-05-09 04:02 36.45459 113.04701 33190 ft 525 kts 171°
2026-05-09 04:03 36.39580 113.06613 33199 ft 523 kts 171°
2026-05-09 04:03 36.32524 113.08905 33206 ft 523 kts 172°
2026-05-09 04:04 36.25453 113.11197 33192 ft 524 kts 172°
2026-05-09 04:04 36.17359 113.14625 33195 ft 533 kts 166°
2026-05-09 04:05 36.11543 113.17252 33205 ft 529 kts 167°
2026-05-09 04:05 36.04635 113.20360 33208 ft 530 kts 167°
2026-05-09 04:06 35.97680 113.23478 33225 ft 534 kts 167°
2026-05-09 04:06 35.90749 113.26580 33239 ft 530 kts 167°
2026-05-09 04:07 35.82661 113.30190 33232 ft 531 kts 167°
2026-05-09 04:07 35.76843 113.32793 33242 ft 532 kts 167°
2026-05-09 04:08 35.69916 113.35890 33245 ft 528 kts 167°
2026-05-09 04:08 35.62955 113.38992 33247 ft 530 kts 167°
2026-05-09 04:09 35.56050 113.42061 33251 ft 532 kts 167°
2026-05-09 04:09 35.49120 113.45132 33246 ft 531 kts 167°
2026-05-09 04:10 35.42141 113.48224 33217 ft 530 kts 167°
2026-05-09 04:10 35.35228 113.51304 33181 ft 529 kts 167°
2026-05-09 04:11 35.27198 113.54872 33149 ft 531 kts 167°
2026-05-09 04:11 35.21413 113.57441 33142 ft 528 kts 167°
2026-05-09 04:12 35.13367 113.61003 33146 ft 530 kts 167°
2026-05-09 04:12 35.07630 113.63541 33147 ft 526 kts 167°
2026-05-09 04:13 35.00759 113.66573 33135 ft 527 kts 167°
2026-05-09 04:13 34.93875 113.69605 33129 ft 524 kts 168°
2026-05-09 04:14 34.86952 113.72648 33131 ft 526 kts 167°
2026-05-09 04:14 34.80026 113.75195 33138 ft 522 kts 173°
2026-05-09 04:15 34.73016 113.77441 33145 ft 521 kts 173°
2026-05-09 04:15 34.64818 113.80100 33152 ft 524 kts 172°
2026-05-09 04:16 34.58946 113.82018 33157 ft 524 kts 172°
2026-05-09 04:16 34.50742 113.84706 33155 ft 523 kts 173°
2026-05-09 04:17 34.43691 113.86933 33167 ft 524 kts 173°
2026-05-09 04:17 34.37805 113.88786 33168 ft 524 kts 173°
2026-05-09 04:18 34.30762 113.91003 33163 ft 525 kts 173°
2026-05-09 04:18 34.22538 113.93591 33168 ft 523 kts 173°
2026-05-09 04:19 34.16624 113.95448 33176 ft 528 kts 173°
2026-05-09 04:19 34.09542 113.97673 33179 ft 524 kts 173°
2026-05-09 04:20 34.02456 113.99892 33171 ft 527 kts 173°
2026-05-09 04:20 33.95382 114.02106 33182 ft 527 kts 173°
2026-05-09 04:21 33.88326 114.04311 33177 ft 524 kts 172°
2026-05-09 04:22 33.76508 114.07994 33182 ft 524 kts 172°
2026-05-09 04:22 33.69434 114.10194 33180 ft 525 kts 172°
2026-05-09 04:23 33.62395 114.12380 33189 ft 523 kts 172°
2026-05-09 04:23 33.56510 114.14204 33193 ft 523 kts 172°
2026-05-09 04:24 33.48284 114.16767 33192 ft 524 kts 169°
2026-05-09 04:24 33.41554 114.20438 33192 ft 538 kts 151°
2026-05-09 04:25 33.35866 114.26274 33197 ft 547 kts 133°
2026-05-09 04:25 33.32259 114.32542 33197 ft 553 kts 118°
2026-05-09 04:26 33.29494 114.41066 33196 ft 553 kts 108°
2026-05-09 04:26 33.27009 114.49815 33204 ft 554 kts 108°
2026-05-09 04:27 33.24469 114.58468 33207 ft 552 kts 109°
2026-05-09 04:27 33.21866 114.67092 33205 ft 554 kts 110°
2026-05-09 04:28 33.19221 114.75697 33198 ft 553 kts 110°
2026-05-09 04:28 33.16092 114.85725 33202 ft 553 kts 111°
2026-05-09 04:29 33.13848 114.92868 33210 ft 553 kts 111°
2026-05-09 04:29 33.11144 115.01434 33209 ft 553 kts 111°
2026-05-09 04:30 33.08436 115.09975 33222 ft 553 kts 111°
2026-05-09 04:30 33.05708 115.18550 33213 ft 553 kts 111°
2026-05-09 04:31 33.02977 115.27108 33222 ft 552 kts 111°
2026-05-09 04:31 33.00240 115.35661 33220 ft 551 kts 111°
2026-05-09 04:32 32.97524 115.44121 33224 ft 551 kts 111°
2026-05-09 04:32 32.94835 115.52658 33227 ft 551 kts 111°
2026-05-09 04:33 32.92155 115.61195 33223 ft 551 kts 110°
2026-05-09 04:33 32.89423 115.69705 33200 ft 550 kts 116°
2026-05-09 04:34 32.84716 115.78429 33209 ft 545 kts 132°
2026-05-09 04:34 32.80677 115.84195 33207 ft 545 kts 133°
2026-05-09 04:35 32.75827 115.91070 33210 ft 543 kts 133°
2026-05-09 04:35 32.70956 115.97961 33209 ft 544 kts 133°
2026-05-09 04:36 32.66095 116.04821 33215 ft 543 kts 133°
2026-05-09 04:36 32.61223 116.11685 33215 ft 544 kts 133°
2026-05-09 04:37 32.56370 116.18510 33212 ft 543 kts 132°
2026-05-09 04:37 32.50788 116.26605 33218 ft 542 kts 131°
2026-05-09 04:38 32.46834 116.32367 33224 ft 543 kts 131°
2026-05-09 04:38 32.42084 116.39269 33222 ft 543 kts 131°
2026-05-09 04:39 32.37328 116.46162 33227 ft 541 kts 131°
2026-05-09 04:39 32.32591 116.53014 33215 ft 539 kts 131°
2026-05-09 04:39 32.30240 116.56409 32886 ft 532 kts 131°
2026-05-09 04:40 32.27907 116.59777 32503 ft 524 kts 131°
2026-05-09 04:40 32.25601 116.63101 32116 ft 517 kts 131°
2026-05-09 04:40 32.22599 116.67424 31587 ft 507 kts 132°
2026-05-09 04:40 32.20379 116.70618 31184 ft 501 kts 132°
2026-05-09 04:41 32.18911 116.72728 30916 ft 496 kts 133°
2026-05-09 04:41 32.16710 116.75835 30515 ft 489 kts 133°
2026-05-09 04:41 32.14521 116.78876 30113 ft 484 kts 133°
2026-05-09 04:41 32.12364 116.81870 29720 ft 484 kts 133°
2026-05-09 04:42 32.10174 116.84906 29325 ft 484 kts 133°
2026-05-09 04:42 32.08032 116.87877 28945 ft 480 kts 133°
2026-05-09 04:42 32.05871 116.90874 28561 ft 475 kts 133°
2026-05-09 04:42 32.03739 116.93829 28179 ft 470 kts 133°
2026-05-09 04:43 32.01636 116.96742 27799 ft 466 kts 133°
2026-05-09 04:43 31.98856 117.00589 27301 ft 465 kts 133°
2026-05-09 04:43 31.97433 117.02557 27043 ft 463 kts 133°
2026-05-09 04:43 31.94691 117.06368 26735 ft 454 kts 133°
2026-05-09 04:44 31.92665 117.09180 26737 ft 457 kts 133°
2026-05-09 04:44 31.90583 117.12067 26734 ft 461 kts 132°
2026-05-09 04:44 31.88515 117.14934 26727 ft 460 kts 132°
2026-05-09 04:44 31.87146 117.16830 26731 ft 458 kts 133°
2026-05-09 04:45 31.85102 117.19662 26733 ft 458 kts 132°
2026-05-09 04:45 31.83038 117.22517 26735 ft 458 kts 133°
2026-05-09 04:45 31.81100 117.25514 26728 ft 461 kts 123°
2026-05-09 04:45 31.79594 117.28748 26731 ft 462 kts 114°
2026-05-09 04:46 31.78503 117.32251 26734 ft 462 kts 105°
2026-05-09 04:46 31.77871 117.35915 26707 ft 462 kts 96°
2026-05-09 04:46 31.77694 117.39710 26365 ft 459 kts 87°
2026-05-09 04:46 31.77766 117.43417 25994 ft 453 kts 86°
2026-05-09 04:47 31.77854 117.47043 25629 ft 447 kts 86°
2026-05-09 04:47 31.77940 117.50687 25254 ft 442 kts 86°
2026-05-09 04:47 31.78022 117.54276 24884 ft 436 kts 86°
2026-05-09 04:47 31.78101 117.57783 24516 ft 431 kts 86°
2026-05-09 04:48 31.78177 117.61301 24139 ft 426 kts 86°
2026-05-09 04:48 31.78274 117.65866 23663 ft 420 kts 87°
2026-05-09 04:48 31.78344 117.69286 23293 ft 417 kts 87°
2026-05-09 04:48 31.78390 117.71516 23049 ft 416 kts 87°
2026-05-09 04:49 31.78458 117.74915 22679 ft 413 kts 87°
2026-05-09 04:49 31.78524 117.78262 22333 ft 411 kts 87°
2026-05-09 04:49 31.78590 117.81625 21880 ft 410 kts 87°
2026-05-09 04:49 31.78674 117.86037 21263 ft 408 kts 87°
2026-05-09 04:50 31.78716 117.88245 20956 ft 407 kts 87°
2026-05-09 04:50 31.78777 117.91542 20490 ft 406 kts 87°
2026-05-09 04:50 31.78858 117.95943 19854 ft 404 kts 87°
2026-05-09 04:50 31.78917 117.99258 19377 ft 402 kts 87°
2026-05-09 04:51 31.78956 118.01407 19065 ft 401 kts 87°
2026-05-09 04:51 31.79013 118.04692 18589 ft 399 kts 87°
2026-05-09 04:51 31.79069 118.07928 18109 ft 398 kts 87°
2026-05-09 04:51 31.79128 118.11147 17637 ft 396 kts 87°
2026-05-09 04:52 31.79193 118.14379 17154 ft 394 kts 87°
2026-05-09 04:52 31.79258 118.17588 16670 ft 392 kts 87°
2026-05-09 04:52 31.79320 118.20738 16190 ft 390 kts 87°
2026-05-09 04:52 31.79402 118.24966 15540 ft 387 kts 88°
2026-05-09 04:53 31.79442 118.27058 15219 ft 386 kts 88°
2026-05-09 04:53 31.79528 118.31250 14570 ft 383 kts 85°
2026-05-09 04:53 31.79689 118.33305 14256 ft 381 kts 82°
2026-05-09 04:53 31.80105 118.37408 13612 ft 378 kts 82°
2026-05-09 04:54 31.80306 118.39429 13295 ft 377 kts 82°
2026-05-09 04:54 31.80604 118.42503 12807 ft 375 kts 83°
2026-05-09 04:54 31.80983 118.46493 12168 ft 372 kts 83°
2026-05-09 04:54 31.81173 118.48517 11840 ft 371 kts 83°
2026-05-09 04:55 31.81450 118.51495 11357 ft 368 kts 83°
2026-05-09 04:55 31.81726 118.54494 10866 ft 366 kts 83°
2026-05-09 04:55 31.81993 118.57430 10382 ft 363 kts 83°
2026-05-09 04:55 31.82260 118.60374 9892 ft 360 kts 84°
2026-05-09 04:56 31.82522 118.63268 9319 ft 351 kts 84°
2026-05-09 04:56 31.82771 118.66041 8843 ft 338 kts 84°
2026-05-09 04:56 31.83092 118.69625 8207 ft 323 kts 85°
2026-05-09 04:56 31.83246 118.71345 7896 ft 317 kts 85°
2026-05-09 04:57 31.83474 118.73899 7411 ft 309 kts 85°
2026-05-09 04:57 31.83766 118.77193 6985 ft 299 kts 85°
2026-05-09 04:57 31.83906 118.78773 6932 ft 291 kts 85°
2026-05-09 04:57 31.84112 118.81091 6923 ft 276 kts 85°
2026-05-09 04:58 31.84304 118.83273 6922 ft 263 kts 85°
2026-05-09 04:58 31.84623 118.85365 6913 ft 261 kts 69°
2026-05-09 04:58 31.85455 118.87271 6923 ft 260 kts 60°
2026-05-09 04:58 31.86380 118.89038 6925 ft 251 kts 59°
2026-05-09 04:59 31.87577 118.91277 6912 ft 235 kts 59°
2026-05-09 04:59 31.88152 118.92355 6736 ft 236 kts 59°
2026-05-09 04:59 31.89027 118.93999 6377 ft 238 kts 59°
2026-05-09 04:59 31.89915 118.95670 6011 ft 241 kts 60°
2026-05-09 05:00 31.90803 118.97339 5639 ft 243 kts 60°
2026-05-09 05:00 31.91710 118.99046 5263 ft 246 kts 60°
2026-05-09 05:00 31.92615 119.00748 4893 ft 249 kts 60°
2026-05-09 05:00 31.93498 119.02498 4508 ft 250 kts 70°
2026-05-09 05:01 31.93769 119.04469 4108 ft 246 kts 99°
2026-05-09 05:01 31.93163 119.06320 3756 ft 241 kts 128°
2026-05-09 05:01 31.91970 119.07655 3516 ft 233 kts 142°
2026-05-09 05:01 31.90667 119.08718 3370 ft 222 kts 146°
2026-05-09 05:02 31.89404 119.09662 3223 ft 212 kts 147°
2026-05-09 05:02 31.88164 119.10568 3073 ft 202 kts 148°
2026-05-09 05:02 31.86883 119.11047 2898 ft 195 kts 180°
2026-05-09 05:02 31.85606 119.10651 2774 ft 189 kts 207°
2026-05-09 05:03 31.84627 119.09592 2684 ft 196 kts 227°
2026-05-09 05:03 31.83845 119.08260 2587 ft 196 kts 233°
2026-05-09 05:03 31.83139 119.06920 2472 ft 189 kts 235°
2026-05-09 05:03 31.82485 119.05621 2359 ft 178 kts 234°
2026-05-09 05:04 31.81846 119.04404 2261 ft 174 kts 233°
2026-05-09 05:04 31.81199 119.03202 2169 ft 175 kts 232°
2026-05-09 05:04 31.80547 119.01989 2063 ft 173 kts 233°
2026-05-09 05:04 31.79906 119.00792 2024 ft 174 kts 232°
2026-05-09 05:05 31.79269 118.99600 2013 ft 172 kts 232°
2026-05-09 05:05 31.78641 118.98424 2018 ft 164 kts 232°
2026-05-09 05:05 31.77832 118.96915 1802 ft 162 kts 232°
2026-05-09 05:05 31.77436 118.96174 1668 ft 163 kts 232°
2026-05-09 05:06 31.76833 118.95047 1455 ft 160 kts 232°
2026-05-09 05:06 31.76251 118.93958 1255 ft 159 kts 233°
2026-05-09 05:06 31.75653 118.92841 1037 ft 159 kts 234°
2026-05-09 05:06 31.74870 118.91378 748 ft 161 kts 235°
2026-05-09 05:07 31.74480 118.90647 604 ft 158 kts 235°
2026-05-09 05:07 31.73893 118.89565 403 ft 159 kts 235°
2026-05-09 05:07 31.73128 118.88116 124 ft 157 kts 236°
2026-05-09 05:07 31.72738 118.87393 66 ft 149 kts 236°
2026-05-09 05:08 31.72263 118.86520 63 ft 101 kts 237°
2026-05-09 05:08 31.71993 118.86011 63 ft 23 kts 239°
2026-05-09 05:08 31.71942 118.85885 63 ft 9 kts 254°
2026-05-09 05:08 31.71924 118.85813 63 ft 8 kts 254°
2026-05-09 05:09 31.71916 118.85746 63 ft 8 kts 266°
2026-05-09 05:09 31.71912 118.85680 63 ft 7 kts 266°
2026-05-09 05:09 31.71916 118.85618 63 ft 7 kts 285°
2026-05-09 05:09 31.71952 118.85584 63 ft 5 kts
2026-05-09 05:10 31.71981 118.85610 63 ft 4 kts 56°
2026-05-09 05:10 31.72000 118.85647 63 ft 5 kts 59°
2026-05-09 05:10 31.72024 118.85693 63 ft 7 kts 58°
2026-05-09 05:10 31.72053 118.85747 63 ft 8 kts 58°
2026-05-09 05:11 31.72085 118.85807 63 ft 9 kts 58°
2026-05-09 05:11 31.72121 118.85874 63 ft 10 kts 58°
2026-05-09 05:11 31.72159 118.85947 63 ft 10 kts 58°
2026-05-09 05:11 31.72197 118.86015 63 ft 10 kts 57°
2026-05-09 05:12 31.72236 118.86087 63 ft 10 kts 58°
2026-05-09 05:12 31.72276 118.86163 63 ft 11 kts 58°
2026-05-09 05:12 31.72319 118.86244 63 ft 11 kts 58°
2026-05-09 05:12 31.72364 118.86329 63 ft 12 kts 58°
2026-05-09 05:13 31.72411 118.86417 63 ft 12 kts 58°
2026-05-09 05:13 31.72458 118.86506 63 ft 12 kts 58°
2026-05-09 05:13 31.72501 118.86586 63 ft 9 kts 58°
2026-05-09 05:13 31.72536 118.86631 63 ft 7 kts 20°
2026-05-09 05:14 31.72588 118.86620 63 ft 8 kts 330°
2026-05-09 05:14 31.72662 118.86568 63 ft 9 kts 328°
2026-05-09 05:14 31.72703 118.86539 63 ft 10 kts 328°
2026-05-09 05:14 31.72768 118.86491 63 ft 11 kts 327°
2026-05-09 05:15 31.72837 118.86440 63 ft 12 kts 328°
2026-05-09 05:15 31.72911 118.86385 63 ft 12 kts 328°
2026-05-09 05:15 31.72990 118.86329 63 ft 13 kts 328°
2026-05-09 05:15 31.73070 118.86269 63 ft 13 kts 327°
2026-05-09 05:16 31.73153 118.86208 63 ft 14 kts 328°
2026-05-09 05:16 31.73239 118.86146 63 ft 14 kts 328°
2026-05-09 05:16 31.73356 118.86060 63 ft 15 kts 328°
2026-05-09 05:16 31.73416 118.86016 63 ft 15 kts 328°
2026-05-09 05:17 31.73508 118.85949 63 ft 15 kts 328°
2026-05-09 05:17 31.73595 118.85886 63 ft 11 kts 328°
2026-05-09 05:17 31.73646 118.85848 63 ft 6 kts 328°
2026-05-09 05:17 31.73703 118.85842 63 ft 7 kts 37°
2026-05-09 05:18 31.73736 118.85894 63 ft 8 kts 58°
2026-05-09 05:18 31.73758 118.85935 63 ft 9 kts 58°
2026-05-09 05:18 31.73793 118.86001 63 ft 9 kts 58°
2026-05-09 05:18 31.73830 118.86073 63 ft 10 kts 58°
2026-05-09 05:19 31.73871 118.86149 63 ft 11 kts 58°
2026-05-09 05:19 31.73914 118.86229 63 ft 11 kts 58°
2026-05-09 05:19 31.73959 118.86313 63 ft 12 kts 58°
2026-05-09 05:19 31.74007 118.86398 63 ft 11 kts 57°
2026-05-09 05:20 31.74042 118.86462 63 ft 9 kts 58°
2026-05-09 05:20 31.74078 118.86531 63 ft 10 kts 58°
2026-05-09 05:20 31.74119 118.86607 63 ft 11 kts 58°
2026-05-09 05:20 31.74161 118.86685 63 ft 11 kts 58°
2026-05-09 05:21 31.74206 118.86770 63 ft 12 kts 58°
2026-05-09 05:21 31.74252 118.86855 63 ft 12 kts 58°
2026-05-09 05:21 31.74293 118.86933 63 ft 9 kts 58°
2026-05-09 05:21 31.74310 118.86983 63 ft 6 kts 94°
2026-05-09 05:22 31.74296 118.87018 63 ft 4 kts 135°
2026-05-09 05:22 31.74274 118.87038 63 ft 3 kts 144°
2026-05-09 05:22 31.74258 118.87051 63 ft 1 kts 147°
2026-05-09 05:22 31.74251 118.87056 63 ft 0 kts 147°